Weather reports worldwide

Advertisment
Calvi, France (7754): temperature & dewpoint: 12.01.2020 12:00:00 - 18.01.2020 12:00:00 (CET)Calvi, France (7754): temperature 5cm: 12.01.2020 12:00:00 - 18.01.2020 12:00:00 (CET)Calvi, France (7754): wind speed & gusts: 12.01.2020 12:00:00 - 18.01.2020 12:00:00 (CET)Calvi, France (7754): wind direction: 12.01.2020 12:00:00 - 18.01.2020 12:00:00 (CET)Calvi, France (7754): reduced air pressure: 12.01.2020 12:00:00 - 18.01.2020 12:00:00 (CET)Calvi, France (7754): visibility: 12.01.2020 12:00:00 - 18.01.2020 12:00:00 (CET)Calvi, France (7754): precipitation: 12.01.2020 12:00:00 - 18.01.2020 12:00:00 (CET)
Date & Time tt [°C] td [°C] tt 5cm [°C] ff [km/h] ff [kn] fx [km/h] fx [kn] dd ppp [hPa] vv [km] rr [mm]
18.01.2020 12:00:00 13,3 5,9 14,8 20 11 37 20 SW 1023,7 59 0,0
18.01.2020 11:00:00 13,0 5,2 12,9 22 12 44 24 SW 1024,2 34 0,0
18.01.2020 10:00:00 11,9 6,6 9,5 24 13 41 22 SSW 1023,1 41 0,0
18.01.2020 09:00:00 9,9 7,0 8,5 13 7 22 12 S 1023,4 58 0,0
18.01.2020 08:00:00 9,0 5,7 8,1 8 4 16 8 SSE 1023,3 55 0,0
18.01.2020 07:00:00 10,3 5,7 9,1 11 6 28 15 SSW 1022,8 51 0,0
18.01.2020 06:00:00 10,3 6,8 8,9 20 11 49 27 S 1022,2 47 0,4
18.01.2020 05:00:00 11,4 6,1 10,9 23 12 44 24 SSW 1021,6 46 0,0
18.01.2020 04:00:00 11,6 5,9 10,2 26 14 55 30 SSW 1021,0 48 0,0
18.01.2020 03:00:00 11,1 7,0 10,0 29 16 51 28 SSW 1021,2 19 0,0
18.01.2020 02:00:00 11,4 7,1 9,9 28 15 63 34 SSW 1022,0 20 0,0
18.01.2020 01:00:00 11,4 7,7 9,6 28 15 58 31 SSW 1022,1 19 1,0
18.01.2020 00:00:00 11,6 7,9 10,1 26 14 50 27 SW 1022,9 39 0,6
17.01.2020 23:00:00 12,1 9,1 10,1 23 12 67 36 SSW 1022,6 41 1,3
17.01.2020 22:00:00 12,8 8,5 10,5 26 14 55 30 SW 1022,8 1,6 2,4
17.01.2020 21:00:00 13,1 8,0 11,0 23 13 51 28 SSW 1022,5 55 0,4
17.01.2020 20:00:00 14,9 6,5 13,5 27 15 46 25 SSW 1022,9 60 0,0
17.01.2020 19:00:00 14,3 5,6 12,8 18 10 38 21 SSW 1023,4 60 0,0
17.01.2020 18:00:00 14,6 4,8 13,2 25 14 36 20 SW 1023,6 60 0,0
17.01.2020 17:00:00 14,7 4,7 14,4 20 11 46 25 S 1024,1 60 0,0
17.01.2020 16:00:00 14,8 4,8 14,7 23 12 45 24 SW 1024,4 60 0,0
17.01.2020 15:00:00 15,9 6,0 16,5 28 15 45 24 SSW 1024,4 49 0,0
17.01.2020 14:00:00 16,4 5,9 16,6 18 10 43 23 SW 1024,8 52 0,0
17.01.2020 13:00:00 15,8 7,0 15,0 23 13 41 22 SSW 1025,5 49 0,0
17.01.2020 12:00:00 14,5 7,5 14,6 19 10 33 18 SSW 1026,7 60 0,0
17.01.2020 11:00:00 13,9 7,6 12,2 15 8 31 17 SSW 1027,3 50 0,0
17.01.2020 10:00:00 12,4 7,3 11,3 14 7 20 11 S 1027,6 58 0,0
17.01.2020 09:00:00 11,7 7,2 9,2 10 5 13 7 S 1027,7 43 0,0
17.01.2020 08:00:00 11,1 6,2 10,0 9 5 27 15 S 1027,4 42 0,0
17.01.2020 07:00:00 12,1 7,2 11,3 18 10 27 15 SW 1027,3 56 0,0
17.01.2020 06:00:00 11,9 7,0 8,2 9 5 19 10 S 1027,2 40 0,0
17.01.2020 05:00:00 9,0 6,4 8,1 0 0 9 5 N 1027,7 38 0,0
17.01.2020 04:00:00 8,4 6,4 7,7 6 3 13 7 SSW 1028,2 33 0,0
17.01.2020 03:00:00 8,4 6,4 7,6 7 4 10 5 S 1028,6 27 0,0
17.01.2020 02:00:00 9,1 6,5 8,2 2 1 9 5 S 1028,7 30 0,0
17.01.2020 01:00:00 8,8 6,4 7,7 0 0 12 7 N 1029,0 30 0,0
17.01.2020 00:00:00 8,0 6,1 7,1 6 3 11 6 S 1029,5 23 0,0
16.01.2020 23:00:00 8,1 6,1 7,1 6 3 11 6 SSW 1029,7 24 0,0
16.01.2020 22:00:00 7,9 5,7 7,2 9 5 15 8 S 1029,9 19 0,0
16.01.2020 21:00:00 8,7 6,3 7,9 8 5 12 7 SSW 1030,1 18 0,0
16.01.2020 20:00:00 9,7 7,1 9,2 11 6 12 7 S 1030,2 15 0,0
16.01.2020 19:00:00 10,1 7,5 9,6 5 3 9 5 SSW 1030,0 20 0,0
16.01.2020 18:00:00 10,9 8,1 10,3 4 2 9 5 S 1029,7 13 0,0
16.01.2020 17:00:00 12,0 8,5 11,5 6 3 8 4 S 1029,4 17 0,0
16.01.2020 16:00:00 13,2 8,3 13,2 0 0 5 3 N 1029,4 20 0,0
16.01.2020 15:00:00 13,4 8,0 13,5 4 2 8 4 NNW 1029,5 27 0,0
16.01.2020 14:00:00 13,9 6,0 14,9 0 0 5 3 N 1029,6 42 0,0
16.01.2020 13:00:00 13,8 6,6 15,2 3 1 5 3 NE 1030,2 37 0,0
16.01.2020 12:00:00 13,6 6,7 13,3 0 0 10 5 N 1030,7 20 0,0
16.01.2020 11:00:00 12,0 6,9 11,2 6 3 10 6 SSE 1031,0 40 0,0
16.01.2020 10:00:00 10,7 7,0 9,5 5 3 7 4 S 1030,8 46 0,0
16.01.2020 09:00:00 9,7 5,9 9,0 0 0 13 7 N 1030,4 48 0,0
16.01.2020 08:00:00 9,3 5,5 8,9 7 4 14 7 S 1030,1 44 0,0
16.01.2020 07:00:00 9,2 5,6 8,1 11 6 13 7 S 1029,7 47 0,0
16.01.2020 06:00:00 8,7 5,3 8,0 3 2 9 5 S 1029,3 41 0,0
16.01.2020 05:00:00 8,8 5,2 7,8 8 4 10 6 SSW 1029,1 44 0,0
16.01.2020 04:00:00 8,8 4,8 7,8 7 4 10 5 S 1029,4 51 0,0
16.01.2020 03:00:00 8,3 4,9 7,8 6 3 11 6 S 1029,5 50 0,0
16.01.2020 02:00:00 8,6 5,0 7,8 11 6 13 7 SSW 1029,5 41 0,0
16.01.2020 01:00:00 8,3 5,0 7,0 4 2 10 5 S 1029,7 49 0,0
16.01.2020 00:00:00 7,2 4,5 5,5 2 1 10 5 S 1029,9 54 0,0
15.01.2020 23:00:00 6,3 3,6 4,5 4 2 18 10 WSW 1029,8 48 0,0
15.01.2020 22:00:00 6,6 3,2 4,5 11 6 16 9 SSW 1029,6 54 0,0
15.01.2020 21:00:00 6,1 3,4 4,5 6 4 16 9 S 1029,5 53 0,0
15.01.2020 20:00:00 7,2 4,5 5,9 10 5 16 9 SSW 1029,6 38 0,0
15.01.2020 19:00:00 8,1 4,5 6,8 8 4 13 7 S 1029,5 26 0,0
15.01.2020 18:00:00 9,9 5,7 8,7 10 5 15 8 SW 1029,2 20 0,0
15.01.2020 17:00:00 10,9 6,2 9,5 6 3 8 4 SSW 1028,6 52 0,0
15.01.2020 16:00:00 13,4 5,8 13,9 0 0 16 9 N 1028,2 60 0,0
15.01.2020 15:00:00 14,3 5,9 15,7 10 6 18 10 NW 1027,8 58 0,0
15.01.2020 14:00:00 14,9 4,8 16,3 8 4 16 8 NNW 1027,7 52 0,0
15.01.2020 13:00:00 14,7 5,5 17,4 8 5 16 9 N 1028,3 50 0,0
15.01.2020 12:00:00 15,1 4,2 19,2 3 2 9 5 N 1028,8 54 0,0
15.01.2020 11:00:00 15,0 4,9 13,9 0 0 7 4 N 1029,0 58 0,0
15.01.2020 10:00:00 11,1 2,9 5,0 7 4 12 6 SSW 1028,8 56 0,0
15.01.2020 09:00:00 5,0 1,1 3,3 6 4 14 8 S 1028,5 9 0,0
15.01.2020 08:00:00 6,2 0,9 4,9 10 5 21 11 S 1027,9 60 0,0
15.01.2020 07:00:00 6,1 1,6 3,9 15 8 20 11 SSW 1027,7 56 0,0
15.01.2020 06:00:00 5,8 2,1 2,6 13 7 18 10 SSW 1027,6 47 0,0
15.01.2020 05:00:00 4,9 1,4 2,5 10 5 16 8 SSW 1027,5 60 0,0
15.01.2020 04:00:00 4,6 1,6 2,5 8 4 16 9 S 1027,8 59 0,0
15.01.2020 03:00:00 5,7 2,3 2,8 12 6 16 9 SSW 1028,1 45 0,0
15.01.2020 02:00:00 5,7 2,2 3,2 10 5 15 8 SSW 1028,1 54 0,0
15.01.2020 01:00:00 5,9 2,0 3,2 11 6 18 10 S 1028,0 44 0,0
15.01.2020 00:00:00 6,0 2,5 3,9 9 5 16 9 SSW 1028,1 54 0,0
14.01.2020 23:00:00 5,0 2,4 3,7 8 4 16 9 SSW 1028,2 51 0,0
14.01.2020 22:00:00 5,0 2,0 4,0 6 3 15 8 S 1027,8 19 0,0
14.01.2020 21:00:00 6,0 3,2 4,2 8 4 13 7 S 1027,6 39 0,0
14.01.2020 20:00:00 6,8 3,2 5,8 8 5 16 9 SSW 1027,4 55 0,0
14.01.2020 19:00:00 6,8 3,2 6,0 13 7 19 10 S 1027,0 17 0,0
14.01.2020 18:00:00 12,2 5,8 9,4 14 8 24 13 SSW 1026,5 51 0,0
14.01.2020 17:00:00 11,8 5,0 10,6 7 4 16 9 SSE 1025,9 59 0,0
14.01.2020 16:00:00 14,9 4,6 16,9 9 5 17 9 SW 1025,4 57 0,0
14.01.2020 15:00:00 15,7 3,5 16,3 10 5 25 14 WSW 1025,2 60 0,0
14.01.2020 14:00:00 15,6 4,3 17,0 15 8 25 14 WSW 1025,2 51 0,0
14.01.2020 13:00:00 15,8 2,9 17,7 13 7 24 13 W 1025,5 58 0,0
14.01.2020 12:00:00 15,5 3,0 17,2 11 6 23 12 SW 1025,9 50 0,0
14.01.2020 11:00:00 14,5 3,3 14,4 8 4 21 11 SSE 1026,2 60 0,0
14.01.2020 10:00:00 11,7 3,9 6,1 4 2 16 9 SSE 1026,3 35 0,0
14.01.2020 09:00:00 6,5 2,2 4,5 16 8 23 12 S 1025,9 52 0,0
14.01.2020 08:00:00 6,1 1,6 2,9 18 10 22 12 S 1025,4 60 0,0
14.01.2020 07:00:00 5,5 0,8 3,1 3 2 13 7 SSW 1024,9 60 0,0
14.01.2020 06:00:00 7,9 1,9 5,0 4 2 16 8 SSW 1024,4 59 0,0
14.01.2020 05:00:00 5,4 1,7 2,6 9 5 12 6 SSE 1024,5 60 0,0
14.01.2020 04:00:00 4,0 1,0 2,1 8 4 11 6 SSW 1025,0 49 0,0
14.01.2020 03:00:00 4,1 1,0 2,8 7 4 12 6 S 1025,3 47 0,0
14.01.2020 02:00:00 6,2 3,4 5,6 6 3 14 8 SSW 1025,2 54 0,0
14.01.2020 01:00:00 5,9 3,6 3,4 13 7 16 9 S 1025,0 48 0,0
14.01.2020 00:00:00 4,9 2,6 3,9 7 4 13 7 SSW 1024,7 42 0,0
13.01.2020 23:00:00 6,4 3,5 3,1 13 7 18 10 SSW 1025,1 44 0,0
13.01.2020 22:00:00 4,1 2,0 3,4 6 3 10 6 S 1025,3 37 0,0
13.01.2020 21:00:00 5,4 3,1 4,1 11 6 16 9 S 1025,4 42 0,0
13.01.2020 20:00:00 6,6 3,2 4,8 11 6 16 9 SSW 1025,1 40 0,0
13.01.2020 19:00:00 5,8 3,1 5,1 5 3 14 8 SSW 1025,2 23 0,0
13.01.2020 18:00:00 7,0 3,6 6,0 8 5 13 7 S 1024,8 25 0,0
13.01.2020 17:00:00 9,3 4,1 8,3 8 4 11 6 SW 1024,5 60 0,0
13.01.2020 16:00:00 12,4 4,8 12,4 8 4 15 8 N 1024,7 60 0,0
13.01.2020 15:00:00 13,2 4,6 15,0 11 6 17 9 N 1024,6 60 0,0
13.01.2020 14:00:00 13,6 3,9 - 10 6 17 9 N 1024,8 20 0,0
13.01.2020 13:00:00 14,0 3,4 - 8 4 15 8 N 1025,5 56 0,0
13.01.2020 12:00:00 13,7 2,3 - 6 4 9 5 N 1026,4 50 0,0
13.01.2020 11:00:00 13,4 1,4 - 0 0 4 2 N 1026,6 59 0,0
13.01.2020 10:00:00 9,4 2,7 - 4 2 9 5 SSE 1026,4 58 0,0
13.01.2020 09:00:00 2,6 -0,7 - 9 5 17 9 S 1026,0 60 0,0
13.01.2020 08:00:00 4,5 -0,3 - 13 7 19 11 SSW 1026,0 60 0,0
13.01.2020 07:00:00 3,8 -0,4 - 13 7 17 9 SSW 1025,9 50 0,0
13.01.2020 06:00:00 2,7 -0,8 - 9 5 14 7 SSW 1025,7 60 0,0
13.01.2020 05:00:00 2,8 -1,0 - 7 4 16 9 S 1025,7 60 0,0
13.01.2020 04:00:00 2,9 -0,7 - 9 5 16 9 S 1025,8 60 0,0
13.01.2020 03:00:00 4,0 -0,4 - 11 6 15 8 SSW 1026,1 60 0,0
13.01.2020 02:00:00 5,3 1,0 - 11 6 16 9 SSW 1026,1 59 0,0
13.01.2020 01:00:00 2,6 0,0 - 6 4 15 8 S 1026,5 60 0,0
13.01.2020 00:00:00 3,3 0,3 - 7 4 17 9 S 1026,9 60 0,0
12.01.2020 23:00:00 5,4 2,4 - 11 6 17 9 SSW 1027,1 60 0,0
12.01.2020 22:00:00 5,3 1,8 - 9 5 14 8 SSW 1027,1 44 0,0
12.01.2020 21:00:00 4,3 1,5 - 4 2 16 9 S 1027,2 58 0,0
12.01.2020 20:00:00 5,5 3,2 - 10 5 15 8 SSW 1026,8 40 0,0
12.01.2020 19:00:00 6,0 3,0 - 7 4 17 9 SSW 1026,4 46 0,0
12.01.2020 18:00:00 7,7 3,7 - 13 7 17 9 SSW 1026,4 49 0,0
12.01.2020 17:00:00 10,9 5,6 - 6 3 13 7 SW 1026,3 39 0,0
12.01.2020 16:00:00 13,4 6,9 - 6 3 16 9 NW 1026,1 51 0,0
12.01.2020 15:00:00 14,4 4,7 - 7 4 16 9 NNW 1026,0 48 0,0
12.01.2020 14:00:00 14,8 5,3 - 8 4 19 10 NNW 1026,2 40 0,0
12.01.2020 13:00:00 14,7 4,1 - 10 5 20 11 N 1026,7 51 0,0
12.01.2020 12:00:00 14,2 5,0 - 10 5 18 10 NW 1027,3 53 0,0

tt = temperature
td = dewpoint
tt 5cm = temperature 5cm
ff = wind speed
fx = gusts
dd = wind direction
ppp = reduced air pressure
vv = visibility
rr = precipitation

Next stations